,,,PA_Meas_PMT16A,,PR_Meas_QMR101_102,,RH_Meas_QMH101,,SR_Meas_QMS101,,TA_Meas_QMH101,,GenWind,,GenWind,
date,time,status,PA,status,PR,status,RH,status,SR,status,TA,status,DirAvg,status,SpdAvg,
2008-11-15, 00:00:05,VALID,1007.88,VALID,0,VALID,93.69,VALID,0.105969,VALID,24.6471,VALID,18,VALID,0,
2008-11-15, 00:01:05,VALID,1007.87,VALID,0,VALID,93.6824,VALID,0.105969,VALID,24.6276,VALID,18,VALID,0,
2008-11-15, 00:02:05,VALID,1007.87,VALID,0,VALID,93.6748,VALID,0,VALID,24.6276,VALID,18,VALID,0,
2008-11-15, 00:03:05,VALID,1007.86,VALID,0,VALID,93.6976,VALID,0.105969,VALID,24.6276,VALID,18,VALID,0,
2008-11-15, 00:04:05,VALID,1007.85,VALID,0,VALID,93.6748,VALID,0,VALID,24.6489,VALID,18,VALID,0,
2008-11-15, 00:05:05,VALID,1007.85,VALID,0,VALID,93.629,VALID,0.105969,VALID,24.6471,VALID,18,VALID,0,
2008-11-15, 00:06:05,VALID,1007.86,VALID,0,VALID,93.6442,VALID,0.105969,VALID,24.6666,VALID,150,VALID,0.61875,
2008-11-15, 00:07:05,VALID,1007.85,VALID,0,VALID,93.5832,VALID,0,VALID,24.6684,VALID,187,VALID,0.747266,
2008-11-15, 00:08:05,VALID,1007.85,VALID,0,VALID,93.5146,VALID,0,VALID,24.6471,VALID,187,VALID,0.609766,
2008-11-15, 00:09:05,VALID,1007.85,VALID,0,VALID,93.4536,VALID,0,VALID,24.6684,VALID,187,VALID,0.404297,
2008-11-15, 00:10:05,VALID,1007.82,VALID,0,VALID,93.4536,VALID,0,VALID,24.6489,VALID,187,VALID,0.369531,
2008-11-15, 00:11:05,VALID,1007.79,VALID,0,VALID,93.4689,VALID,0,VALID,24.6471,VALID,187,VALID,0.217969,
2008-11-15, 00:12:05,VALID,1007.79,VALID,0,VALID,93.5299,VALID,0,VALID,24.6879,VALID,185,VALID,0.281641,
2008-11-15, 00:13:05,VALID,1007.78,VALID,0,VALID,93.5299,VALID,0,VALID,24.686,VALID,167,VALID,0.258203,
2008-11-15, 00:14:05,VALID,1007.74,VALID,0,VALID,93.6061,VALID,0,VALID,24.7269,VALID,167,VALID,0.201172,
2008-11-15, 00:15:05,VALID,1007.71,VALID,0,VALID,93.6137,VALID,0,VALID,24.7464,VALID,167,VALID,0.267188,
2008-11-15, 00:16:05,VALID,1007.68,VALID,0,VALID,93.5604,VALID,0,VALID,24.7269,VALID,167,VALID,0.271875,
2008-11-15, 00:17:05,VALID,1007.64,VALID,0,VALID,93.5832,VALID,0,VALID,24.7464,VALID,167,VALID,0.107813,
2008-11-15, 00:18:05,VALID,1007.65,VALID,0,VALID,93.629,VALID,0,VALID,24.7659,VALID,167,VALID,0,
2008-11-15, 00:19:05,VALID,1007.63,VALID,0,VALID,93.6366,VALID,0,VALID,24.7659,VALID,167,VALID,0,
2008-11-15, 00:20:05,VALID,1007.61,VALID,0,VALID,93.6976,VALID,0,VALID,24.7854,VALID,167,VALID,0.128125,
2008-11-15, 00:21:05,VALID,1007.56,VALID,0,VALID,93.6671,VALID,0,VALID,24.7445,VALID,167,VALID,0.278906,
2008-11-15, 00:22:05,VALID,1007.57,VALID,0,VALID,93.629,VALID,0,VALID,24.725,VALID,166,VALID,0.348437,
2008-11-15, 00:23:05,VALID,1007.57,VALID,0,VALID,93.6061,VALID,0,VALID,24.7269,VALID,107,VALID,0.341406,
2008-11-15, 00:24:05,VALID,1007.58,VALID,0,VALID,93.5985,VALID,0.105969,VALID,24.725,VALID,79,VALID,0.401172,
2008-11-15, 00:25:05,VALID,1007.58,VALID,0,VALID,93.5299,VALID,0.105969,VALID,24.7055,VALID,65,VALID,0.371484,
2008-11-15, 00:26:05,VALID,1007.54,VALID,0,VALID,93.507,VALID,0.105969,VALID,24.6842,VALID,65,VALID,0.339453,
2008-11-15, 00:27:05,VALID,1007.57,VALID,0,VALID,93.4612,VALID,0,VALID,24.686,VALID,65,VALID,0.289063,
2008-11-15, 00:28:05,VALID,1007.55,VALID,0,VALID,93.446,VALID,0.105969,VALID,24.7055,VALID,65,VALID,0.333984,
2008-11-15, 00:29:05,VALID,1007.51,VALID,0,VALID,93.4307,VALID,0,VALID,24.6666,VALID,65,VALID,0.259375,
2008-11-15, 00:30:05,VALID,1007.51,VALID,0,VALID,93.385,VALID,0.105969,VALID,24.6471,VALID,65,VALID,0.3625,
2008-11-15, 00:31:05,VALID,1007.47,VALID,0,VALID,93.3468,VALID,0.105969,VALID,24.6452,VALID,55,VALID,0.395312,
2008-11-15, 00:32:05,VALID,1007.49,VALID,0,VALID,93.385,VALID,0.105969,VALID,24.6666,VALID,55,VALID,0.285547,
2008-11-15, 00:33:05,VALID,1007.44,VALID,0,VALID,93.4536,VALID,0.105969,VALID,24.6257,VALID,55,VALID,0.157813,
2008-11-15, 00:34:05,VALID,1007.43,VALID,0,VALID,93.4994,VALID,0.105969,VALID,24.6062,VALID,55,VALID,0.208594,
2008-11-15, 00:35:05,VALID,1007.42,VALID,0,VALID,93.5146,VALID,0.105969,VALID,24.6276,VALID,55,VALID,0.287109,
2008-11-15, 00:36:05,VALID,1007.4,VALID,0,VALID,93.4994,VALID,0.105969,VALID,24.6081,VALID,55,VALID,0.163281,
2008-11-15, 00:37:05,VALID,1007.36,VALID,0,VALID,93.4994,VALID,0.105969,VALID,24.5886,VALID,55,VALID,0.428906,
2008-11-15, 00:38:05,VALID,1007.39,VALID,0,VALID,93.5527,VALID,0.105969,VALID,24.5886,VALID,55,VALID,0.282031,
2008-11-15, 00:39:05,VALID,1007.37,VALID,0,VALID,93.6061,VALID,0.105969,VALID,24.5496,VALID,55,VALID,0.4,
2008-11-15, 00:40:05,VALID,1007.38,VALID,0,VALID,93.6366,VALID,0.105969,VALID,24.5301,VALID,55,VALID,0.366797,
2008-11-15, 00:41:05,VALID,1007.35,VALID,0,VALID,93.6061,VALID,0,VALID,24.5106,VALID,55,VALID,0.329297,
2008-11-15, 00:42:05,VALID,1007.37,VALID,0,VALID,93.6595,VALID,0.105969,VALID,24.4503,VALID,59,VALID,0.623438,
2008-11-15, 00:43:05,VALID,1007.32,VALID,0,VALID,93.7358,VALID,0.105969,VALID,24.4911,VALID,63,VALID,0.350391,
2008-11-15, 00:44:05,VALID,1007.36,VALID,0,VALID,93.8196,VALID,0.105969,VALID,24.4503,VALID,63,VALID,0.221094,
2008-11-15, 00:45:05,VALID,1007.33,VALID,0,VALID,93.8883,VALID,0.105969,VALID,24.4503,VALID,63,VALID,0.233984,
2008-11-15, 00:46:05,VALID,1007.33,VALID,0,VALID,93.9112,VALID,0.105969,VALID,24.4522,VALID,77,VALID,0.745313,
2008-11-15, 00:47:05,VALID,1007.31,VALID,0,VALID,93.8959,VALID,0.105969,VALID,24.4327,VALID,74,VALID,0.489844,
2008-11-15, 00:48:05,VALID,1007.31,VALID,0,VALID,93.8883,VALID,0,VALID,24.4132,VALID,70,VALID,0.605469,
2008-11-15, 00:49:05,VALID,1007.3,VALID,0,VALID,93.8883,VALID,0.105969,VALID,24.4327,VALID,70,VALID,0.414844,
2008-11-15, 00:50:05,VALID,1007.3,VALID,0,VALID,93.9188,VALID,0.105969,VALID,24.4345,VALID,71,VALID,0.600391,
2008-11-15, 00:51:05,VALID,1007.28,VALID,0,VALID,93.9035,VALID,0.105969,VALID,24.4132,VALID,76,VALID,0.450781,
2008-11-15, 00:52:05,VALID,1007.27,VALID,0,VALID,93.9417,VALID,0,VALID,24.4132,VALID,76,VALID,0.246875,
2008-11-15, 00:53:05,VALID,1007.27,VALID,0,VALID,93.8959,VALID,0.105969,VALID,24.3937,VALID,53,VALID,0.537891,
2008-11-15, 00:54:05,VALID,1007.23,VALID,0,VALID,93.9035,VALID,0,VALID,24.415,VALID,46,VALID,0.161328,
2008-11-15, 00:55:05,VALID,1007.27,VALID,0,VALID,93.8959,VALID,0,VALID,24.415,VALID,49,VALID,0.244922,
2008-11-15, 00:56:05,VALID,1007.23,VALID,0,VALID,93.873,VALID,0,VALID,24.415,VALID,50,VALID,0.421875,
2008-11-15, 00:57:05,VALID,1007.24,VALID,0,VALID,93.8959,VALID,0,VALID,24.3956,VALID,52,VALID,0.510156,
2008-11-15, 00:58:05,VALID,1007.24,VALID,0,VALID,93.8883,VALID,0,VALID,24.3761,VALID,43,VALID,0.408203,
2008-11-15, 00:59:05,VALID,1007.24,VALID,0,VALID,93.9035,VALID,0,VALID,24.3761,VALID,43,VALID,0.241016,
2008-11-15, 01:00:05,VALID,1007.25,VALID,0,VALID,93.9188,VALID,0,VALID,24.3761,VALID,43,VALID,0.0664063,
2008-11-15, 01:01:05,VALID,1007.26,VALID,0,VALID,93.934,VALID,0,VALID,24.3761,VALID,71,VALID,0.363281,
2008-11-15, 01:02:05,VALID,1007.27,VALID,0,VALID,93.9417,VALID,0,VALID,24.3761,VALID,71,VALID,0.395703,
2008-11-15, 01:03:05,VALID,1007.33,VALID,0,VALID,93.9188,VALID,0,VALID,24.3761,VALID,71,VALID,0.148047,
2008-11-15, 01:04:05,VALID,1007.33,VALID,0,VALID,93.9417,VALID,0,VALID,24.3956,VALID,75,VALID,0.353125,
2008-11-15, 01:05:05,VALID,1007.33,VALID,0,VALID,93.9645,VALID,0,VALID,24.3937,VALID,95,VALID,0.704687,
2008-11-15, 01:06:05,VALID,1007.33,VALID,0,VALID,93.9417,VALID,0,VALID,24.4345,VALID,99,VALID,0.560547,
2008-11-15, 01:07:05,VALID,1007.37,VALID,0,VALID,93.8883,VALID,0,VALID,24.415,VALID,99,VALID,0.689844,
2008-11-15, 01:08:04,VALID,1007.37,VALID,0,VALID,93.7968,VALID,0,VALID,24.4345,VALID,99,VALID,0.629297,
2008-11-15, 01:09:04,VALID,1007.36,VALID,0,VALID,93.7281,VALID,0,VALID,24.4345,VALID,98,VALID,0.659375,
2008-11-15, 01:10:04,VALID,1007.36,VALID,0,VALID,93.6595,VALID,0,VALID,24.454,VALID,95,VALID,0.962891,
2008-11-15, 01:11:04,VALID,1007.35,VALID,0,VALID,93.5909,VALID,0,VALID,24.4735,VALID,96,VALID,0.754297,
2008-11-15, 01:12:04,VALID,1007.33,VALID,0,VALID,93.5375,VALID,0,VALID,24.4735,VALID,104,VALID,0.564844,
2008-11-15, 01:13:04,VALID,1007.3,VALID,0,VALID,93.4841,VALID,0,VALID,24.493,VALID,105,VALID,0.354688,
2008-11-15, 01:14:04,VALID,1007.29,VALID,0,VALID,93.4384,VALID,0,VALID,24.493,VALID,92,VALID,0.330469,
2008-11-15, 01:15:04,VALID,1007.26,VALID,0,VALID,93.3773,VALID,0,VALID,24.493,VALID,63,VALID,0.442969,
2008-11-15, 01:16:04,VALID,1007.24,VALID,0,VALID,93.385,VALID,0,VALID,24.4717,VALID,71,VALID,0.240234,
2008-11-15, 01:17:04,VALID,1007.23,VALID,0,VALID,93.3773,VALID,0,VALID,24.4735,VALID,71,VALID,0.227344,
2008-11-15, 01:18:04,VALID,1007.22,VALID,0,VALID,93.3773,VALID,0,VALID,24.493,VALID,71,VALID,0.279297,
2008-11-15, 01:19:04,VALID,1007.24,VALID,0,VALID,93.3697,VALID,0,VALID,24.4327,VALID,65,VALID,0.313672,
2008-11-15, 01:20:04,VALID,1007.24,VALID,0,VALID,93.3621,VALID,0,VALID,24.4345,VALID,65,VALID,0.31875,
2008-11-15, 01:21:04,VALID,1007.23,VALID,0,VALID,93.3926,VALID,0,VALID,24.4345,VALID,65,VALID,0.147266,
2008-11-15, 01:22:04,VALID,1007.26,VALID,0,VALID,93.4384,VALID,0,VALID,24.3937,VALID,65,VALID,0.225781,
2008-11-15, 01:23:04,VALID,1007.25,VALID,0,VALID,93.507,VALID,0,VALID,24.3956,VALID,65,VALID,0.203906,
2008-11-15, 01:24:04,VALID,1007.26,VALID,0,VALID,93.6137,VALID,0,VALID,24.3956,VALID,65,VALID,0.015625,
2008-11-15, 01:25:04,VALID,1007.23,VALID,0,VALID,93.69,VALID,0,VALID,24.3956,VALID,65,VALID,0.262109,
2008-11-15, 01:26:04,VALID,1007.25,VALID,0,VALID,93.7358,VALID,0,VALID,24.3547,VALID,65,VALID,0.107813,
2008-11-15, 01:27:04,VALID,1007.25,VALID,0,VALID,93.7663,VALID,0,VALID,24.3566,VALID,65,VALID,0.0546875,
2008-11-15, 01:28:04,VALID,1007.22,VALID,0,VALID,93.7968,VALID,0,VALID,24.3371,VALID,65,VALID,0.171875,
2008-11-15, 01:29:04,VALID,1007.23,VALID,0,VALID,93.8273,VALID,0,VALID,24.3371,VALID,65,VALID,0,
2008-11-15, 01:30:04,VALID,1007.19,VALID,0,VALID,93.8959,VALID,0,VALID,24.3352,VALID,65,VALID,0,
2008-11-15, 01:31:04,VALID,1007.15,VALID,0,VALID,93.9264,VALID,0,VALID,24.2963,VALID,65,VALID,0.163672,
2008-11-15, 01:32:04,VALID,1007.16,VALID,0,VALID,93.9798,VALID,0,VALID,24.3158,VALID,65,VALID,0,
2008-11-15, 01:33:04,VALID,1007.14,VALID,0,VALID,94.0027,VALID,0,VALID,24.3371,VALID,65,VALID,0,
2008-11-15, 01:34:04,VALID,1007.12,VALID,0,VALID,94.0637,VALID,0,VALID,24.3176,VALID,65,VALID,0.00351562,
2008-11-15, 01:35:04,VALID,1007.1,VALID,0,VALID,94.1018,VALID,0,VALID,24.2963,VALID,65,VALID,0.0328125,
2008-11-15, 01:36:04,VALID,1007.09,VALID,0,VALID,94.1094,VALID,0,VALID,24.3176,VALID,65,VALID,0.225391,
2008-11-15, 01:37:04,VALID,1007.06,VALID,0,VALID,94.1476,VALID,0,VALID,24.2768,VALID,65,VALID,0.0175781,
2008-11-15, 01:38:04,VALID,1007.05,VALID,0,VALID,94.1933,VALID,0,VALID,24.2768,VALID,65,VALID,0.333203,
2008-11-15, 01:39:04,VALID,1007.01,VALID,0,VALID,94.2162,VALID,0,VALID,24.2981,VALID,65,VALID,0.234766,
2008-11-15, 01:40:04,VALID,1006.99,VALID,0,VALID,94.2467,VALID,0,VALID,24.2981,VALID,65,VALID,0.00546875,
2008-11-15, 01:41:04,VALID,1006.95,VALID,0,VALID,94.2543,VALID,0,VALID,24.3176,VALID,65,VALID,0.0257812,
2008-11-15, 01:42:04,VALID,1006.95,VALID,0,VALID,94.2772,VALID,0,VALID,24.2786,VALID,65,VALID,0,
2008-11-15, 01:43:04,VALID,1006.93,VALID,0,VALID,94.2619,VALID,0,VALID,24.2786,VALID,65,VALID,0,
2008-11-15, 01:44:04,VALID,1006.9,VALID,0,VALID,94.2696,VALID,0,VALID,24.2981,VALID,65,VALID,0,
2008-11-15, 01:45:04,VALID,1006.88,VALID,0,VALID,94.3077,VALID,0,VALID,24.2963,VALID,65,VALID,0,
2008-11-15, 01:46:04,VALID,1006.86,VALID,0,VALID,94.3077,VALID,0,VALID,24.2981,VALID,65,VALID,0.0589844,
2008-11-15, 01:47:04,VALID,1006.84,VALID,0,VALID,94.3306,VALID,0,VALID,24.2981,VALID,65,VALID,0.224219,
2008-11-15, 01:48:04,VALID,1006.8,VALID,0,VALID,94.3229,VALID,0,VALID,24.2981,VALID,65,VALID,0.116016,
2008-11-15, 01:49:04,VALID,1006.79,VALID,0,VALID,94.3306,VALID,0,VALID,24.2786,VALID,65,VALID,0.190625,
2008-11-15, 01:50:04,VALID,1006.75,VALID,0,VALID,94.3229,VALID,0,VALID,24.2786,VALID,65,VALID,0.190234,
2008-11-15, 01:51:04,VALID,1006.73,VALID,0,VALID,94.3458,VALID,0.105969,VALID,24.2768,VALID,65,VALID,0.224609,
2008-11-15, 01:52:04,VALID,1006.7,VALID,0,VALID,94.3534,VALID,0.105969,VALID,24.2768,VALID,65,VALID,0.417578,
2008-11-15, 01:53:04,VALID,1006.66,VALID,0,VALID,94.3839,VALID,0.105969,VALID,24.2963,VALID,65,VALID,0.199609,
2008-11-15, 01:54:04,VALID,1006.64,VALID,0,VALID,94.4221,VALID,0,VALID,24.2963,VALID,65,VALID,0.244531,
2008-11-15, 01:55:04,VALID,1006.64,VALID,0,VALID,94.445,VALID,0,VALID,24.2981,VALID,72,VALID,0.597266,
2008-11-15, 01:56:04,VALID,1006.63,VALID,0,VALID,94.4297,VALID,0,VALID,24.3176,VALID,79,VALID,0.640625,
2008-11-15, 01:57:04,VALID,1006.59,VALID,0,VALID,94.3992,VALID,0,VALID,24.2768,VALID,82,VALID,0.746484,
2008-11-15, 01:58:04,VALID,1006.58,VALID,0,VALID,94.3687,VALID,0,VALID,24.3176,VALID,78,VALID,0.671484,
2008-11-15, 01:59:04,VALID,1006.56,VALID,0,VALID,94.2924,VALID,0,VALID,24.2981,VALID,78,VALID,0.355078,
2008-11-15, 02:00:04,VALID,1006.54,VALID,0,VALID,94.2696,VALID,0,VALID,24.3371,VALID,78,VALID,0.319141,
2008-11-15, 02:01:04,VALID,1006.55,VALID,0,VALID,94.2619,VALID,0,VALID,24.3176,VALID,78,VALID,0.204688,
2008-11-15, 02:02:04,VALID,1006.53,VALID,0,VALID,94.2238,VALID,0,VALID,24.3176,VALID,78,VALID,0.391797,
2008-11-15, 02:03:04,VALID,1006.52,VALID,0,VALID,94.2314,VALID,0,VALID,24.3176,VALID,78,VALID,0,
2008-11-15, 02:04:04,VALID,1006.5,VALID,0,VALID,94.1704,VALID,0,VALID,24.2981,VALID,78,VALID,0.00429688,
2008-11-15, 02:05:04,VALID,1006.48,VALID,0,VALID,94.1628,VALID,0,VALID,24.2768,VALID,78,VALID,0.194922,
2008-11-15, 02:06:04,VALID,1006.49,VALID,0,VALID,94.1552,VALID,0,VALID,24.2573,VALID,78,VALID,0.257422,
2008-11-15, 02:07:04,VALID,1006.48,VALID,0,VALID,94.1704,VALID,0,VALID,24.2591,VALID,78,VALID,0.294922,
2008-11-15, 02:08:04,VALID,1006.47,VALID,0,VALID,94.1933,VALID,0,VALID,24.2591,VALID,73,VALID,0.466797,
2008-11-15, 02:09:04,VALID,1006.47,VALID,0,VALID,94.2086,VALID,0,VALID,24.2378,VALID,69,VALID,0.151562,
2008-11-15, 02:10:04,VALID,1006.45,VALID,0,VALID,94.2238,VALID,0,VALID,24.2396,VALID,69,VALID,0.121484,
2008-11-15, 02:11:04,VALID,1006.48,VALID,0,VALID,94.2238,VALID,0,VALID,24.2396,VALID,69,VALID,0,
2008-11-15, 02:12:04,VALID,1006.46,VALID,0,VALID,94.2543,VALID,0,VALID,24.2378,VALID,69,VALID,0.505859,
2008-11-15, 02:13:04,VALID,1006.5,VALID,0,VALID,94.2848,VALID,0,VALID,24.2396,VALID,71,VALID,0.669922,
2008-11-15, 02:14:04,VALID,1006.48,VALID,0,VALID,94.3001,VALID,0,VALID,24.2396,VALID,84,VALID,0.221094,
2008-11-15, 02:15:04,VALID,1006.5,VALID,0,VALID,94.3001,VALID,0,VALID,24.2202,VALID,84,VALID,0,
2008-11-15, 02:16:04,VALID,1006.47,VALID,0,VALID,94.3382,VALID,0,VALID,24.2202,VALID,84,VALID,0.132422,
2008-11-15, 02:17:04,VALID,1006.51,VALID,0,VALID,94.3382,VALID,0,VALID,24.2183,VALID,84,VALID,0.200781,
2008-11-15, 02:18:04,VALID,1006.49,VALID,0,VALID,94.3687,VALID,0,VALID,24.2396,VALID,84,VALID,0.211328,
2008-11-15, 02:19:04,VALID,1006.51,VALID,0,VALID,94.3534,VALID,0,VALID,24.2183,VALID,84,VALID,0,
2008-11-15, 02:20:04,VALID,1006.48,VALID,0,VALID,94.3763,VALID,0,VALID,24.2202,VALID,84,VALID,0,
2008-11-15, 02:21:04,VALID,1006.47,VALID,0,VALID,94.3687,VALID,0,VALID,24.2396,VALID,76,VALID,0.456641,
2008-11-15, 02:22:04,VALID,1006.45,VALID,0,VALID,94.3458,VALID,0,VALID,24.2396,VALID,76,VALID,0.146484,
2008-11-15, 02:23:04,VALID,1006.44,VALID,0,VALID,94.3382,VALID,0,VALID,24.2591,VALID,76,VALID,0.0117188,
2008-11-15, 02:24:04,VALID,1006.45,VALID,0,VALID,94.3229,VALID,0,VALID,24.2591,VALID,76,VALID,0,
2008-11-15, 02:25:04,VALID,1006.45,VALID,0,VALID,94.3306,VALID,0,VALID,24.2786,VALID,76,VALID,0,
2008-11-15, 02:26:04,VALID,1006.45,VALID,0,VALID,94.3077,VALID,0,VALID,24.2786,VALID,76,VALID,0.00234375,
2008-11-15, 02:27:04,VALID,1006.47,VALID,0,VALID,94.3229,VALID,0,VALID,24.2981,VALID,76,VALID,0.0875,
2008-11-15, 02:28:04,VALID,1006.46,VALID,0,VALID,94.3153,VALID,0,VALID,24.2981,VALID,76,VALID,0.204688,
2008-11-15, 02:29:04,VALID,1006.45,VALID,0,VALID,94.2924,VALID,0,VALID,24.3176,VALID,76,VALID,0.426953,
2008-11-15, 02:30:04,VALID,1006.44,VALID,0,VALID,94.2543,VALID,0,VALID,24.3176,VALID,76,VALID,0.369531,
2008-11-15, 02:31:04,VALID,1006.42,VALID,0,VALID,94.2162,VALID,0,VALID,24.3371,VALID,76,VALID,0.232812,
2008-11-15, 02:32:04,VALID,1006.41,VALID,0,VALID,94.1628,VALID,0,VALID,24.3352,VALID,76,VALID,0.295312,
2008-11-15, 02:33:04,VALID,1006.4,VALID,0,VALID,94.1399,VALID,0,VALID,24.3566,VALID,76,VALID,0.178906,
2008-11-15, 02:34:04,VALID,1006.37,VALID,0,VALID,94.0713,VALID,0,VALID,24.3566,VALID,76,VALID,0.142188,
2008-11-15, 02:35:04,VALID,1006.34,VALID,0,VALID,94.0255,VALID,0,VALID,24.3761,VALID,76,VALID,0.153125,
2008-11-15, 02:36:04,VALID,1006.31,VALID,0,VALID,93.934,VALID,0,VALID,24.3566,VALID,76,VALID,0.216016,
2008-11-15, 02:37:04,VALID,1006.29,VALID,0,VALID,93.8807,VALID,0,VALID,24.3566,VALID,76,VALID,0.229297,
2008-11-15, 02:38:04,VALID,1006.28,VALID,0,VALID,93.8578,VALID,0,VALID,24.3371,VALID,76,VALID,0.109375,
2008-11-15, 02:39:04,VALID,1006.25,VALID,0,VALID,93.8502,VALID,0,VALID,24.3566,VALID,76,VALID,0.174609,
2008-11-15, 02:40:04,VALID,1006.26,VALID,0,VALID,93.7968,VALID,0,VALID,24.3371,VALID,76,VALID,0.155469,
2008-11-15, 02:41:04,VALID,1006.25,VALID,0,VALID,93.8044,VALID,0,VALID,24.2963,VALID,76,VALID,0.122656,
2008-11-15, 02:42:04,VALID,1006.25,VALID,0,VALID,93.8578,VALID,0,VALID,24.3371,VALID,76,VALID,0.217969,
2008-11-15, 02:43:04,VALID,1006.25,VALID,0,VALID,93.873,VALID,0,VALID,24.3371,VALID,76,VALID,0.2,
2008-11-15, 02:44:04,VALID,1006.25,VALID,0,VALID,93.873,VALID,0,VALID,24.3176,VALID,76,VALID,0,
2008-11-15, 02:45:04,VALID,1006.24,VALID,0,VALID,93.8959,VALID,0,VALID,24.3176,VALID,76,VALID,0,
2008-11-15, 02:46:04,VALID,1006.24,VALID,0,VALID,93.8654,VALID,0,VALID,24.2981,VALID,76,VALID,0,
2008-11-15, 02:47:04,VALID,1006.25,VALID,0,VALID,93.9188,VALID,0,VALID,24.2981,VALID,76,VALID,0,
2008-11-15, 02:48:04,VALID,1006.23,VALID,0,VALID,93.9417,VALID,0,VALID,24.2981,VALID,76,VALID,0,
2008-11-15, 02:49:04,VALID,1006.23,VALID,0,VALID,93.995,VALID,0,VALID,24.2573,VALID,76,VALID,0,
2008-11-15, 02:50:04,VALID,1006.23,VALID,0,VALID,94.0408,VALID,0,VALID,24.2378,VALID,76,VALID,0,
2008-11-15, 02:51:04,VALID,1006.24,VALID,0,VALID,94.0255,VALID,0,VALID,24.2396,VALID,76,VALID,0,
2008-11-15, 02:52:04,VALID,1006.22,VALID,0,VALID,94.0484,VALID,0,VALID,24.2202,VALID,76,VALID,0,
2008-11-15, 02:53:04,VALID,1006.25,VALID,0,VALID,94.0713,VALID,0.105969,VALID,24.1793,VALID,76,VALID,0,
2008-11-15, 02:54:04,VALID,1006.27,VALID,0,VALID,94.1094,VALID,0,VALID,24.1599,VALID,76,VALID,0,
2008-11-15, 02:55:04,VALID,1006.23,VALID,0,VALID,94.1704,VALID,0,VALID,24.1812,VALID,76,VALID,0,
2008-11-15, 02:56:04,VALID,1006.25,VALID,0,VALID,94.2009,VALID,0,VALID,24.1617,VALID,76,VALID,0.35625,
2008-11-15, 02:57:04,VALID,1006.28,VALID,0,VALID,94.2848,VALID,0,VALID,24.1812,VALID,91,VALID,0.403516,
2008-11-15, 02:58:04,VALID,1006.28,VALID,0,VALID,94.3534,VALID,0,VALID,24.2007,VALID,91,VALID,0.317187,
2008-11-15, 02:59:04,VALID,1006.3,VALID,0,VALID,94.4068,VALID,0,VALID,24.1988,VALID,91,VALID,0.225,
2008-11-15, 03:00:04,VALID,1006.31,VALID,0,VALID,94.4526,VALID,0,VALID,24.2591,VALID,91,VALID,0.198828,
2008-11-15, 03:01:04,VALID,1006.33,VALID,0,VALID,94.4831,VALID,0,VALID,24.2591,VALID,91,VALID,0.243359,
2008-11-15, 03:02:04,VALID,1006.33,VALID,0,VALID,94.4831,VALID,0,VALID,24.2591,VALID,89,VALID,0.633203,
2008-11-15, 03:03:04,VALID,1006.33,VALID,0,VALID,94.4526,VALID,0,VALID,24.2786,VALID,90,VALID,0.507422,
2008-11-15, 03:04:04,VALID,1006.31,VALID,0,VALID,94.3916,VALID,0,VALID,24.2981,VALID,79,VALID,0.214062,
2008-11-15, 03:05:04,VALID,1006.31,VALID,0,VALID,94.3687,VALID,0,VALID,24.2963,VALID,79,VALID,0.398438,
2008-11-15, 03:06:04,VALID,1006.32,VALID,0,VALID,94.2772,VALID,0,VALID,24.3176,VALID,79,VALID,0.256641,
2008-11-15, 03:07:04,VALID,1006.3,VALID,0,VALID,94.2009,VALID,0,VALID,24.3176,VALID,79,VALID,0.228906,
2008-11-15, 03:08:04,VALID,1006.32,VALID,0,VALID,94.1323,VALID,0,VALID,24.2963,VALID,79,VALID,0.251563,
2008-11-15, 03:09:04,VALID,1006.35,VALID,0,VALID,94.0637,VALID,0,VALID,24.3158,VALID,79,VALID,0,
2008-11-15, 03:10:04,VALID,1006.33,VALID,0,VALID,94.0408,VALID,0.105969,VALID,24.2963,VALID,79,VALID,0.323047,
2008-11-15, 03:11:04,VALID,1006.36,VALID,0,VALID,93.9874,VALID,0,VALID,24.3176,VALID,79,VALID,0.0164062,
2008-11-15, 03:12:04,VALID,1006.35,VALID,0,VALID,93.9645,VALID,0,VALID,24.2963,VALID,79,VALID,0.130078,
2008-11-15, 03:13:04,VALID,1006.36,VALID,0,VALID,93.9264,VALID,0,VALID,24.3176,VALID,79,VALID,0.0683594,
2008-11-15, 03:14:04,VALID,1006.34,VALID,0,VALID,93.934,VALID,0,VALID,24.3176,VALID,79,VALID,0,
2008-11-15, 03:15:04,VALID,1006.36,VALID,0,VALID,93.9645,VALID,0,VALID,24.3176,VALID,79,VALID,0,
2008-11-15, 03:16:04,VALID,1006.36,VALID,0,VALID,93.9645,VALID,0,VALID,24.2768,VALID,79,VALID,0,
2008-11-15, 03:17:04,VALID,1006.35,VALID,0,VALID,93.9798,VALID,0,VALID,24.2768,VALID,79,VALID,0,
2008-11-15, 03:18:04,VALID,1006.34,VALID,0,VALID,93.995,VALID,0,VALID,24.2786,VALID,79,VALID,0,
2008-11-15, 03:19:04,VALID,1006.35,VALID,0,VALID,94.0179,VALID,0,VALID,24.2573,VALID,79,VALID,0,
2008-11-15, 03:20:04,VALID,1006.35,VALID,0,VALID,94.0103,VALID,0,VALID,24.2591,VALID,79,VALID,0,
2008-11-15, 03:21:04,VALID,1006.35,VALID,0,VALID,94.0179,VALID,0,VALID,24.2378,VALID,79,VALID,0,
2008-11-15, 03:22:04,VALID,1006.35,VALID,0,VALID,94.0865,VALID,0,VALID,24.2378,VALID,79,VALID,0.0683594,
2008-11-15, 03:23:04,VALID,1006.38,VALID,0,VALID,94.1018,VALID,0,VALID,24.2591,VALID,79,VALID,0.276953,
2008-11-15, 03:24:04,VALID,1006.36,VALID,0,VALID,94.1323,VALID,0,VALID,24.2786,VALID,79,VALID,0.00585938,
2008-11-15, 03:25:04,VALID,1006.38,VALID,0,VALID,94.1399,VALID,0,VALID,24.2591,VALID,79,VALID,0,
2008-11-15, 03:26:04,VALID,1006.39,VALID,0,VALID,94.1399,VALID,0,VALID,24.2396,VALID,79,VALID,0,
2008-11-15, 03:27:04,VALID,1006.4,VALID,0,VALID,94.1094,VALID,0,VALID,24.2591,VALID,79,VALID,0,
2008-11-15, 03:28:04,VALID,1006.41,VALID,0,VALID,94.0713,VALID,0,VALID,24.2183,VALID,79,VALID,0,
2008-11-15, 03:29:04,VALID,1006.44,VALID,0,VALID,94.0789,VALID,0,VALID,24.2396,VALID,79,VALID,0.0105469,
2008-11-15, 03:30:04,VALID,1006.45,VALID,0,VALID,94.0637,VALID,0,VALID,24.1793,VALID,105,VALID,0.4625,
2008-11-15, 03:31:04,VALID,1006.46,VALID,0,VALID,94.056,VALID,0,VALID,24.1599,VALID,142,VALID,0.673437,
2008-11-15, 03:32:04,VALID,1006.47,VALID,0,VALID,94.1247,VALID,0,VALID,24.1812,VALID,146,VALID,0.769531,
2008-11-15, 03:33:04,VALID,1006.47,VALID,0,VALID,94.1781,VALID,0,VALID,24.1812,VALID,151,VALID,0.670313,
2008-11-15, 03:34:04,VALID,1006.49,VALID,0,VALID,94.2314,VALID,0,VALID,24.1812,VALID,151,VALID,0.583984,
2008-11-15, 03:35:04,VALID,1006.5,VALID,0,VALID,94.2696,VALID,0,VALID,24.1617,VALID,151,VALID,0.459766,
2008-11-15, 03:36:04,VALID,1006.51,VALID,0,VALID,94.2924,VALID,0,VALID,24.1599,VALID,151,VALID,0.638281,
2008-11-15, 03:37:04,VALID,1006.53,VALID,0,VALID,94.3229,VALID,0,VALID,24.1617,VALID,155,VALID,0.332031,
2008-11-15, 03:38:04,VALID,1006.53,VALID,0,VALID,94.3611,VALID,0,VALID,24.1812,VALID,155,VALID,0.428516,
2008-11-15, 03:39:04,VALID,1006.52,VALID,0,VALID,94.4221,VALID,0,VALID,24.1617,VALID,155,VALID,0.177344,
2008-11-15, 03:40:04,VALID,1006.54,VALID,0,VALID,94.4068,VALID,0,VALID,24.1599,VALID,155,VALID,0.208594,
2008-11-15, 03:41:04,VALID,1006.55,VALID,0,VALID,94.4526,VALID,0,VALID,24.1617,VALID,155,VALID,0.123828,
2008-11-15, 03:42:04,VALID,1006.55,VALID,0,VALID,94.4602,VALID,0,VALID,24.2007,VALID,155,VALID,0.176953,
2008-11-15, 03:43:04,VALID,1006.53,VALID,0,VALID,94.4831,VALID,0,VALID,24.1599,VALID,155,VALID,0,
2008-11-15, 03:44:04,VALID,1006.52,VALID,0,VALID,94.4831,VALID,0,VALID,24.1812,VALID,155,VALID,0,
2008-11-15, 03:45:04,VALID,1006.53,VALID,0,VALID,94.506,VALID,0,VALID,24.1812,VALID,155,VALID,0,
2008-11-15, 03:46:04,VALID,1006.51,VALID,0,VALID,94.5136,VALID,0,VALID,24.1812,VALID,155,VALID,0,
2008-11-15, 03:47:04,VALID,1006.53,VALID,0,VALID,94.5212,VALID,0,VALID,24.1812,VALID,155,VALID,0,